Location: Burland Observatory
(39.4088°N, 105.4217°W)
Time: 16:11:48
(UTC-07:00)

Explorer 7 - Pass Details

Date: 13 December 2019
Orbit: 485 x 679 km, 50.3° (Epoch: 21 January)

Event Time Altitude Azimuth Distance (km) Brightness Sun altitude
Rises 17:47:49 0° 296° (WNW) 3,018 11.3 -13.0°
Reaches altitude 10° 17:50:39 10° 311° (NW) 2,112 10.2 -13.5°
Maximum altitude 17:54:29 22° 3° (N) 1,449 8.7 -14.2°
Enters shadow 17:56:36 17° 37° (NE) 1,672 8.8 -14.6°
